Regional Weather Roundup
Issued by NWS San Angelo, TX

Home | Current Version | Previous Version | Text Only | Print | Product List | Glossary On
Versions: 1 2 3 4 5 6 7 8 9 10 11 12 13 14 15 16 17 18 19 20 21 22 23 24 25 26 27 28 29 30 31 32 33 34 35 36 37 38 39 40 41 42 43 44 45 46 47 48 49 50
000
ASUS44 KSJT 261110
RWRSJT
WEST CENTRAL TEXAS REGIONAL WEATHER ROUNDUP
NATIONAL WEATHER SERVICE SAN ANGELO TX
600 AM CDT SAT JUL 26 2014

NOTE: "FAIR" INDICATES FEW OR NO CLOUDS BELOW 12,000 FEET WITH NO
SIGNIFICANT WEATHER AND/OR OBSTRUCTIONS TO VISIBILITY.

TXZ049-054-064>066-071>073-076>078-098-099-113-114-127-128-139-140-
154-155-168>170-261200
...LOCATIONS ACROSS WEST CENTRAL TEXAS...

CITY           SKY/WX    TMP DP  RH WIND       PRES   REMARKS
SAN ANGELO     CLEAR     76  65  68 S12       30.00S
ABILENE        CLEAR     78  64  61 S10       29.99R
DYESS AFB      CLEAR     78  65  63 S13       29.97S
JUNCTION       CLEAR     75  68  78 E5        30.02S
SWEETWATER     CLEAR     78  62  58 S10       30.04S
BROWNWOOD      MOCLDY    73  66  78 SE3       30.01R
COLEMAN        SUNNY     74  64  72 S3        30.01R
SONORA         CLEAR     75  68  78 SE3       30.07S
OZONA          FAIR      73  64  73 S7        30.05S
BRADY          CLEAR     73  66  78 S6        30.02R
$$

TEXAS PANHANDLE/OKLAHOMA PANHANDLE

CITY           SKY/WX    TMP DP  RH WIND       PRES   REMARKS
AMARILLO       CLEAR     74  54  49 SW15      30.04R
BORGER         CLEAR     77  52  41 S6        30.00S
CANADIAN       PTCLDY    75  60  60 S6        29.95F
DALHART        PTCLDY    69  50  50 SW9       30.04S
DUMAS          SUNNY     71  51  48 S7        30.03R
GUYMON         NOT AVBL
HEREFORD       SUNNY     70  57  63 S7        30.06R
PAMPA          SUNNY     71  51  49 SW9       30.03R
PERRYTON       MOCLDY    75  50  40 SW9       29.97S
$$

SOUTHERN PANHANDLE/SOUTH PLAINS/ROLLING PLAINS

CITY           SKY/WX    TMP DP  RH WIND       PRES   REMARKS
LUBBOCK        CLEAR     75  57  53 SW10      30.03S
SNYDER         CLEAR     75  62  63 S8        30.02R
CHILDRESS      CLEAR     72  62  71 S8        29.96R
SEMINOLE       SUNNY     74  60  62 S7        30.07R
$$

PERMIAN BASIN

CITY           SKY/WX    TMP DP  RH WIND       PRES   REMARKS
MIDLAND        CLEAR     77  62  59 S10       30.02S
ODESSA         CLEAR     78  62  57 S10       30.03S
WINK           CLEAR     75  62  64 SE7       30.00S
$$

FAR WEST/SOUTHWEST MOUNTAINS/TRANS PECOS

CITY           SKY/WX    TMP DP  RH WIND       PRES   REMARKS
ALPINE         SUNNY     73  56  56 SW8       30.18R
DRYDEN           N/A     79  65  62 E6        29.99S
EL PASO        CLEAR     77  42  28 SE8       30.04R
FORT STOCKTON  CLEAR     74  61  63 S9        30.03R
GUADALUPE PASS CLEAR     72  53  51 W9        30.19S
MARFA          CLEAR     63  55  77 NE7       30.18S
PECOS          SUNNY     72  60  66 E5        29.98S
$$

DALLAS/FORT WORTH METROPLEX

CITY           SKY/WX    TMP DP  RH WIND       PRES   REMARKS
DFW AIRPORT    CLEAR     80  70  71 S9        29.97R
FTW MEACHAM    CLEAR     80  70  71 S8        29.97R
DAL-EXECUTIVE  CLEAR     78  70  76 S5        29.97R
GRAND PRAIRIE  CLEAR     78  69  73 S6        29.99R
ADDISON        NOT AVBL
MESQUITE       NOT AVBL
LANCASTER      SUNNY     75  69  80 SW3       29.99R
$$

NORTH CENTRAL TEXAS

CITY           SKY/WX    TMP DP  RH WIND       PRES   REMARKS
SHRMAN/DENISON SUNNY     77  69  77 S8        29.98R
GAINESVILLE    CLEAR     75  69  84 S6        29.99R
BRIDGEPORT     SUNNY     79  66  65 S8        29.98R
DENTON         CLEAR     76  70  82 S5        29.96R
WAXAHACHIE     SUNNY     74  68  83 S5        29.99R
GRANBURY       SUNNY     80  69  69 SE3       29.99R
$$

WESTERN NORTH TEXAS

CITY           SKY/WX    TMP DP  RH WIND       PRES   REMARKS
WICHITA FALLS  CLEAR     75  66  73 S8        29.94R
VERNON         SUNNY     75  64  67 S8        29.95R
BRECKENRIDGE   SUNNY     79  65  61 S8        29.97R
COMANCHE       CLEAR     76  67  74 S12       30.00R
$$

CENTRAL AND SOUTH CENTRAL TEXAS

CITY           SKY/WX    TMP DP  RH WIND       PRES   REMARKS
AUSTIN/BERGSTM CLEAR     73  72  96 CALM      30.00R
WACO           CLEAR     77  71  82 S12       29.98S
HILLSBORO      SUNNY     75  69  81 SE3       29.99R
TEMPLE         CLEAR     73  68  83 S8        30.00R
KILLEEN-GRAY   CLEAR     75  72  88 S8        30.00R
FORT HOOD      CLEAR     78  72  81 S5        30.00R
GEORGETOWN     CLEAR     77  73  88 S7        30.02R
LAGO VISTA     FAIR      76  72  86 S5        30.03R
SAN MARCOS     CLEAR     73  66  78 SE5       30.02R
NEW BRAUNFELS  CLEAR     74  72  93 CALM      29.99R
RANDOLPH AFB   CLEAR     73  70  89 S6        30.00S
SAN ANTONIO    CLEAR     78  73  84 S8        30.00S
STINSON        CLEAR     76  72  87 E3        29.98R
PLEASANTON     NOT AVBL
LA GRANGE      PTCLDY    77  76  97 CALM      29.99R
GIDDINGS       SUNNY     76  74  93 CALM      30.04R
$$

EAST TEXAS

CITY           SKY/WX    TMP DP  RH WIND       PRES   REMARKS
PARIS          CLEAR     73  66  78 S7        29.99R
CLARKSVILLE    MOSUNNY   74  73  94 CALM      29.99R
TYLER          CLEAR     77  72  84 S7        30.00R
LONGVIEW       CLEAR     76  72  87 SW6       29.99R
PALESTINE      NOT AVBL
NACOGDOCHES    PTCLDY    73  72  94 SW3       30.02R
$$

TEXAS HILL COUNTRY AND EDWARDS PLATEAU

CITY           SKY/WX    TMP DP  RH WIND       PRES   REMARKS
LLANO          SUNNY     73  68  83 CALM      30.04R
HORSESHOE BAY  FAIR      74  67  80 CALM      30.01R
KERRVILLE      CLEAR     72  69  90 SE6       30.04R
FREDERICKSBRG  CLEAR     71  67  85 CALM      30.04R
ROCKSPRINGS    SUNNY     72  68  88 SE8       30.06S
HONDO          CLEAR     74  71  91 E5        30.02R
UVALDE         SUNNY     75  73  91 E5        29.99S
DEL RIO        CLEAR     79  69  71 E8        29.96R
$$

SOUTHEAST TEXAS

CITY           SKY/WX    TMP DP  RH WIND       PRES   REMARKS
COLLEGE STN    CLEAR     76  74  93 SE6       30.00S
CALDWELL       SUNNY     75  75 100 CALM      30.03S
CROCKETT       SUNNY     77  77 100 CALM      30.04R
BRENHAM        PTCLDY    75  74  94 CALM      30.01R
HUNTSVILLE     CLEAR     77  74  90 S5        30.02R
CONROE         CLEAR     75  74  96 CALM      30.02R
HOUSTON BUSH   PTCLDY    78  75  90 S5        30.01R
HOUSTON HOBBY  PTCLDY    77  74  90 CALM      30.01R
PERLAND        PTCLDY    78  74  87 CALM      30.03R
WHARTON        SUNNY     74  73  97 CALM      30.01R FOG
$$

THE UPPER TEXAS COAST

CITY           SKY/WX    TMP DP  RH WIND       PRES   REMARKS
ORANGE         SUNNY     76  76 100 CALM      30.03R
PORT ARTHUR    CLEAR     76  74  93 CALM      30.01R
GALVESTON      PTCLDY    82  76  81 SW5       30.03R
ANGLETON       CLEAR     75  74  96 CALM      30.01R
BAY CITY       SUNNY     77  77 100 CALM      30.01R FOG
$$

TEXAS COASTAL BEND, RIO GRANDE PLAINS DEEP SOUTH TEXAS

CITY           SKY/WX    TMP DP  RH WIND       PRES   REMARKS
VICTORIA       CLEAR     78  76  93 SE6       30.00R FOG
BEEVILLE       FAIR      76  76  98 S6        29.98R
ROCKPORT       CLEAR     81  76  84 S8        29.97R
PORT ARANSAS   SUNNY     80  77  91 S8        29.98R
PORT LAVACA    SUNNY     76  74  93 CALM      29.99R
CORPUS CHRISTI PTCLDY    76  74  93 CALM      29.97R
KINGSVILLE NAS CLEAR     76  75  97 S5        29.97R
COTULLA        CLEAR     76  70  82 SE6       29.96R
LAREDO         CLEAR     79  70  74 SE12      29.97R
BROWNSVILLE    CLEAR     78  76  93 SE6       29.97S
PORT ISABEL    CLEAR     81  75  82 S8        29.97R
HEBBRONVILLE   SUNNY     76  72  85 SE9       29.98S
MCALLEN        CLEAR     79  76  90 S9        29.96S
WESLACO        NOT AVBL
FALFURRIAS     SUNNY     62  62 100 S6        29.96S
EDINBURG       SUNNY     80  74  84 SE6       29.97R
$$


USA.gov is the U.S. government's official web portal to all federal, state and local government web resources and services.